Погода в Росендале

Нидерланды     51°31′53″N   4°27′26″E
темп.,
°C
ветер,
м/с
пор.,
м/с
влажн.,
%
обл.,
%
осадки,
мм/ч
давл.,
гПа
погр.,
м
29 июня, ср
ср2923:00+17вюв22614 0.0 101723
02:00+15юв34654 0.0 101646
05:00+15юв337334 0.0 101444
08:00+19ю23625 0.0 1014174
11:00+24ююз34425 0.0 10141119
14:00+27юз453390 0.0 10132403
17:00+27ююз453261 0.0 10122510
20:00+24зсз445141 0.0 1011239
30 июня, чт
чт3023:00+17ссз34715 0.0 101362
02:00+15с128588 0.0 101213
05:00+14сз11875 0.0 101211
08:00+18с117212 0.0 1012170
11:00+24ююз234882 0.0 1011913
14:00+21з656559 0.0 1011576
17:00+16зюз81185100 0.1 1012629
20:00+14зюз479597 3.2 1012409
1 июля, пт
пт123:00+14юз5995100 0.3 1013455
02:00+13юз4794100 0.5 1014319
05:00+11ююз379799 0.0 1015205
08:00+13юз59855 0.0 1016477
11:00+18юз68540 0.0 10171353
14:00+20зюз794775 0.1 10171954
17:00+21зюз584094 0.0 10182401
20:00+20зюз474615 0.0 10191707
2 июля, сб
сб223:00+14юз34740 0.0 102158
02:00+12юз47750 0.0 1021126
05:00+11ююз35845 0.0 102269
08:00+15ююз36651 0.0 1022282
11:00+21ю46465 0.0 10221206
14:00+25ююз573422 0.0 10202328
17:00+26ююз67315 0.0 10192571
20:00+24юз464115 0.0 10181012
3 июля, вс
вс323:00+15сз34698 0.0 101954
02:00+14зюз33720 0.0 101944
05:00+13зюз34920 0.0 101956
08:00+17зюз45801 0.0 1019395
11:00+21зюз565950 0.0 10191092
14:00+23зсз674512 0.0 10191755
17:00+22зсз66440 0.0 10191130
20:00+19сз5648100 0.0 1020584